| time (UTC) | temp C | wind direction | speed KPH | gust KPH | rain 1hr cm | rain 24hr cm | rain mn cm | humidity % | barometer mb |
| 20260507084040 | 21 | 272 | 1.6 | 4.8 | 0.00 | 0.00 | 0.00 | 53 | 1014.1 |
| 20260507083538 | 20 | 252 | 1.6 | 4.8 | 0.00 | 0.00 | 0.00 | 54 | 1014.3 |
| 20260507083045 | 20 | 252 | 3.2 | 4.8 | 0.00 | 0.00 | 0.00 | 56 | 1014.2 |
| 20260507082538 | 20 | 248 | 3.2 | 4.8 | 0.00 | 0.00 | 0.00 | 53 | 1014.4 |
| 20260507082044 | 21 | 291 | 3.2 | 4.8 | 0.00 | 0.00 | 0.00 | 54 | 1014.3 |
| 20260507081555 | 20 | 279 | 1.6 | 8.0 | 0.00 | 0.00 | 0.00 | 54 | 1014.4 |
| 20260507081043 | 21 | 274 | 3.2 | 8.0 | 0.00 | 0.00 | 0.00 | 53 | 1014.5 |
| 20260507080538 | 21 | 249 | 4.8 | 11.3 | 0.00 | 0.00 | 0.00 | 53 | 1014.5 |
| 20260507080053 | 22 | 272 | 4.8 | 16.1 | 0.00 | 0.00 | 0.00 | 51 | 1014.6 |
| 20260507075538 | 22 | 251 | 6.4 | 16.1 | 0.00 | 0.00 | 0.00 | 48 | 1014.5 |
| 20260507075041 | 22 | 200 | 9.7 | 16.1 | 0.00 | 0.00 | 0.00 | 47 | 1014.6 |
| 20260507074552 | 22 | 213 | 8.0 | 12.9 | 0.00 | 0.00 | 0.00 | 50 | 1014.6 |
| 20260507074041 | 22 | 235 | 4.8 | 14.5 | 0.00 | 0.00 | 0.00 | 49 | 1014.6 |
| 20260507073541 | 22 | 283 | 6.4 | 14.5 | 0.00 | 0.00 | 0.00 | 50 | 1014.7 |
| 20260507073101 | 21 | 228 | 4.8 | 11.3 | 0.00 | 0.00 | 0.00 | 49 | 1014.6 |
| 20260507072541 | 22 | 266 | 4.8 | 9.7 | 0.00 | 0.00 | 0.00 | 49 | 1014.7 |
| 20260507072040 | 22 | 265 | 4.8 | 14.5 | 0.00 | 0.00 | 0.00 | 48 | 1014.6 |
| 20260507071548 | 22 | 229 | 6.4 | 16.1 | 0.00 | 0.00 | 0.00 | 49 | 1014.6 |
| 20260507071041 | 22 | 232 | 8.0 | 16.1 | 0.00 | 0.00 | 0.00 | 47 | 1014.7 |
| 20260507070541 | 22 | 207 | 6.4 | 12.9 | 0.00 | 0.00 | 0.00 | 47 | 1014.8 |
| 20260507070056 | 22 | 234 | 6.4 | 11.3 | 0.00 | 0.00 | 0.00 | 50 | 1014.7 |
| 20260507065541 | 21 | 220 | 8.0 | 11.3 | 0.00 | 0.00 | 0.00 | 51 | 1014.7 |
| 20260507065040 | 21 | 223 | 4.8 | 8.0 | 0.00 | 0.00 | 0.00 | 53 | 1014.8 |
| 20260507064557 | 21 | 235 | 4.8 | 6.4 | 0.00 | 0.00 | 0.00 | 54 | 1014.8 |
| 20260507064041 | 21 | 234 | 3.2 | 4.8 | 0.00 | 0.00 | 0.00 | 52 | 1014.9 |
| 20260507063540 | 20 | 216 | 3.2 | 3.2 | 0.00 | 0.00 | 0.00 | 55 | 1014.9 |
| 20260507063046 | 20 | 176 | 1.6 | 4.8 | 0.00 | 0.00 | 0.00 | 55 | 1014.9 |
| 20260507062537 | 20 | 214 | 1.6 | 4.8 | 0.00 | 0.00 | 0.00 | 59 | 1014.7 |
| 20260507062040 | 20 | 269 | 3.2 | 4.8 | 0.00 | 0.00 | 0.00 | 53 | 1014.8 |
| 20260507061547 | 20 | 329 | 1.6 | 4.8 | 0.00 | 0.00 | 0.00 | 51 | 1014.9 |
| 20260507061037 | 21 | 193 | 0.0 | 3.2 | 0.00 | 0.00 | 0.00 | 51 | 1014.7 |
| 20260507060540 | 20 | 193 | 1.6 | 3.2 | 0.00 | 0.00 | 0.00 | 54 | 1014.6 |
| 20260507060053 | 20 | 183 | 1.6 | 3.2 | 0.00 | 0.00 | 0.00 | 56 | 1014.7 |
| 20260507055541 | 20 | 170 | 0.0 | 3.2 | 0.00 | 0.00 | 0.00 | 53 | 1014.7 |
| 20260507055041 | 19 | 178 | 1.6 | 3.2 | 0.00 | 0.00 | 0.00 | 57 | 1014.7 |
| 20260507054549 | 20 | 229 | 1.6 | 3.2 | 0.00 | 0.00 | 0.00 | 57 | 1014.7 |
| 20260507054041 | 21 | 313 | 1.6 | 3.2 | 0.00 | 0.00 | 0.00 | 47 | 1014.6 |
| 20260507053541 | 21 | 298 | 1.6 | 1.6 | 0.00 | 0.00 | 0.00 | 48 | 1014.6 |
| 20260507053048 | 21 | 286 | 1.6 | 1.6 | 0.00 | 0.00 | 0.00 | 47 | 1014.6 |
| 20260507052541 | 21 | 270 | 1.6 | 1.6 | 0.00 | 0.00 | 0.00 | 49 | 1014.7 |
| 20260507052041 | 21 | 219 | 0.0 | 3.2 | 0.00 | 0.00 | 0.00 | 47 | 1014.7 |
| 20260507051546 | 21 | 219 | 1.6 | 3.2 | 0.00 | 0.00 | 0.00 | 54 | 1014.7 |
| 20260507051040 | 21 | 219 | 1.6 | 3.2 | 0.00 | 0.00 | 0.00 | 51 | 1014.7 |
| 20260507050537 | 22 | 0 | 0.0 | 3.2 | 0.00 | 0.00 | 0.00 | 46 | 1014.7 |
| 20260507050046 | 22 | 261 | 1.6 | 3.2 | 0.00 | 0.00 | 0.00 | 42 | 1014.7 |
| 20260507045541 | 22 | 223 | 1.6 | 3.2 | 0.00 | 0.00 | 0.00 | 41 | 1014.6 |
| 20260507045041 | 22 | 223 | 1.6 | 4.8 | 0.00 | 0.00 | 0.00 | 45 | 1014.6 |
| 20260507044558 | 21 | 210 | 3.2 | 4.8 | 0.00 | 0.00 | 0.00 | 49 | 1014.6 |
| 20260507044042 | 22 | 238 | 0.0 | 3.2 | 0.00 | 0.00 | 0.00 | 49 | 1014.6 |
| 20260507043540 | 22 | 303 | 1.6 | 3.2 | 0.00 | 0.00 | 0.00 | 42 | 1014.5 |
| 20260507043050 | 23 | 301 | 0.0 | 3.2 | 0.00 | 0.00 | 0.00 | 39 | 1014.5 |
| 20260507042538 | 25 | 0 | 0.0 | 3.2 | 0.00 | 0.00 | 0.00 | 34 | 1014.5 |
| 20260507042040 | 25 | 18 | 0.0 | 6.4 | 0.00 | 0.00 | 0.00 | 32 | 1014.6 |
| 20260507041550 | 25 | 18 | 3.2 | 6.4 | 0.00 | 0.00 | 0.00 | 31 | 1014.5 |
| 20260507041041 | 24 | 9 | 1.6 | 4.8 | 0.00 | 0.00 | 0.00 | 41 | 1014.5 |
| 20260507040541 | 24 | 327 | 0.0 | 4.8 | 0.00 | 0.00 | 0.00 | 35 | 1014.4 |
| 20260507040048 | 25 | 0 | 0.0 | 4.8 | 0.00 | 0.00 | 0.00 | 36 | 1014.3 |
| 20260507035540 | 25 | 34 | 1.6 | 8.0 | 0.00 | 0.00 | 0.00 | 33 | 1014.2 |
| 20260507035041 | 25 | 0 | 1.6 | 8.0 | 0.00 | 0.00 | 0.00 | 37 | 1014.1 |
| 20260507034548 | 25 | 128 | 1.6 | 6.4 | 0.00 | 0.00 | 0.00 | 32 | 1014.0 |
| 20260507034038 | 25 | 126 | 0.0 | 9.7 | 0.00 | 0.00 | 0.00 | 35 | 1013.9 |
| 20260507033540 | 26 | 127 | 3.2 | 9.7 | 0.00 | 0.00 | 0.00 | 28 | 1014.0 |
| 20260507033102 | 26 | 77 | 3.2 | 8.0 | 0.00 | 0.00 | 0.00 | 29 | 1013.8 |
| 20260507032542 | 26 | 162 | 1.6 | 12.9 | 0.00 | 0.00 | 0.00 | 29 | 1013.7 |
| 20260507032041 | 27 | 221 | 4.8 | 12.9 | 0.00 | 0.00 | 0.00 | 29 | 1013.6 |
| 20260507031559 | 27 | 150 | 6.4 | 19.3 | 0.00 | 0.00 | 0.00 | 28 | 1013.5 |
| 20260507031041 | 27 | 150 | 6.4 | 19.3 | 0.00 | 0.00 | 0.00 | 29 | 1013.5 |
| 20260507030540 | 27 | 167 | 8.0 | 16.1 | 0.00 | 0.00 | 0.00 | 27 | 1013.4 |
| 20260507030107 | 27 | 159 | 4.8 | 16.1 | 0.00 | 0.00 | 0.00 | 27 | 1013.4 |
| 20260507025540 | 27 | 191 | 8.0 | 16.1 | 0.00 | 0.00 | 0.00 | 28 | 1013.2 |
| 20260507025041 | 27 | 184 | 6.4 | 16.1 | 0.00 | 0.00 | 0.00 | 29 | 1013.2 |
| 20260507024607 | 27 | 127 | 6.4 | 16.1 | 0.00 | 0.00 | 0.00 | 28 | 1013.2 |
| 20260507024040 | 27 | 173 | 4.8 | 17.7 | 0.00 | 0.00 | 0.00 | 28 | 1013.0 |
| 20260507023540 | 27 | 138 | 8.0 | 22.5 | 0.00 | 0.00 | 0.00 | 28 | 1012.9 |
| 20260507023052 | 27 | 128 | 8.0 | 22.5 | 0.00 | 0.00 | 0.00 | 27 | 1012.9 |
| 20260507022538 | 27 | 153 | 9.7 | 24.1 | 0.00 | 0.00 | 0.00 | 27 | 1012.9 |
| 20260507022038 | 27 | 142 | 11.3 | 24.1 | 0.00 | 0.00 | 0.00 | 27 | 1012.8 |
| 20260507021556 | 27 | 148 | 14.5 | 22.5 | 0.00 | 0.00 | 0.00 | 27 | 1012.8 |
| 20260507021037 | 27 | 168 | 14.5 | 22.5 | 0.00 | 0.00 | 0.00 | 27 | 1012.8 |
| 20260507020541 | 27 | 96 | 11.3 | 20.9 | 0.00 | 0.00 | 0.00 | 29 | 1012.7 |
| 20260507020058 | 28 | 147 | 11.3 | 20.9 | 0.00 | 0.00 | 0.00 | 27 | 1012.7 |
| 20260507015541 | 28 | 150 | 9.7 | 20.9 | 0.00 | 0.00 | 0.00 | 27 | 1012.7 |
| 20260507015043 | 28 | 181 | 11.3 | 22.5 | 0.00 | 0.00 | 0.00 | 27 | 1012.8 |
| 20260507014555 | 28 | 134 | 11.3 | 22.5 | 0.00 | 0.00 | 0.00 | 26 | 1012.8 |
| 20260507014041 | 28 | 171 | 11.3 | 19.3 | 0.00 | 0.00 | 0.00 | 27 | 1012.4 |
| 20260507013543 | 28 | 128 | 12.9 | 19.3 | 0.00 | 0.00 | 0.00 | 27 | 1012.5 |
| 20260507013101 | 28 | 143 | 9.7 | 19.3 | 0.00 | 0.00 | 0.00 | 27 | 1012.6 |
| 20260507012540 | 28 | 137 | 9.7 | 19.3 | 0.00 | 0.00 | 0.00 | 27 | 1012.6 |
| 20260507012042 | 28 | 140 | 9.7 | 17.7 | 0.00 | 0.00 | 0.00 | 28 | 1012.6 |
| 20260507011554 | 28 | 178 | 11.3 | 17.7 | 0.00 | 0.00 | 0.00 | 28 | 1012.6 |
| 20260507011040 | 28 | 175 | 11.3 | 17.7 | 0.00 | 0.00 | 0.00 | 26 | 1012.6 |
| 20260507010540 | 28 | 157 | 8.0 | 17.7 | 0.00 | 0.00 | 0.00 | 28 | 1012.6 |
| 20260507010052 | 28 | 150 | 6.4 | 17.7 | 0.00 | 0.00 | 0.00 | 30 | 1012.6 |
| 20260507005537 | 28 | 103 | 4.8 | 17.7 | 0.00 | 0.00 | 0.00 | 29 | 1012.6 |
| 20260507005041 | 29 | 153 | 8.0 | 19.3 | 0.00 | 0.00 | 0.00 | 28 | 1012.5 |
| 20260507004551 | 29 | 121 | 8.0 | 19.3 | 0.00 | 0.00 | 0.00 | 28 | 1012.5 |
| 20260507004041 | 29 | 170 | 8.0 | 17.7 | 0.00 | 0.00 | 0.00 | 26 | 1012.6 |
| 20260507003544 | 29 | 171 | 9.7 | 17.7 | 0.00 | 0.00 | 0.00 | 29 | 1012.6 |
| 20260507003051 | 30 | 96 | 11.3 | 17.7 | 0.00 | 0.00 | 0.00 | 25 | 1012.4 |
| 20260507002537 | 30 | 78 | 11.3 | 17.7 | 0.00 | 0.00 | 0.00 | 26 | 1012.5 |
| 20260507002042 | 30 | 127 | 8.0 | 20.9 | 0.00 | 0.00 | 0.00 | 27 | 1012.4 |
| 20260507001546 | 30 | 99 | 8.0 | 20.9 | 0.00 | 0.00 | 0.00 | 25 | 1012.4 |
| 20260507001040 | 30 | 125 | 11.3 | 19.3 | 0.00 | 0.00 | 0.00 | 25 | 1012.3 |
| 20260507000541 | 30 | 89 | 12.9 | 19.3 | 0.00 | 0.00 | 0.00 | 25 | 1012.3 |
| 20260507000054 | 30 | 57 | 9.7 | 20.9 | 0.00 | 0.00 | 0.00 | 26 | 1012.3 |
| 20260506235543 | 30 | 86 | 9.7 | 20.9 | 0.00 | 0.00 | 0.00 | 25 | 1012.3 |
| 20260506235041 | 30 | 123 | 9.7 | 17.7 | 0.00 | 0.00 | 0.00 | 25 | 1012.2 |
| 20260506234604 | 30 | 80 | 12.9 | 17.7 | 0.00 | 0.00 | 0.00 | 25 | 1012.2 |
| 20260506234040 | 30 | 80 | 12.9 | 17.7 | 0.00 | 0.00 | 0.00 | 25 | 1012.3 |
| 20260506233541 | 30 | 90 | 9.7 | 19.3 | 0.00 | 0.00 | 0.00 | 24 | 1012.4 |
| 20260506233055 | 30 | 75 | 8.0 | 17.7 | 0.00 | 0.00 | 0.00 | 25 | 1012.3 |
| 20260506232540 | 30 | 92 | 9.7 | 17.7 | 0.00 | 0.00 | 0.00 | 24 | 1012.4 |
| 20260506232040 | 30 | 91 | 9.7 | 17.7 | 0.00 | 0.00 | 0.00 | 24 | 1012.4 |
| 20260506231555 | 30 | 76 | 9.7 | 17.7 | 0.00 | 0.00 | 0.00 | 24 | 1012.5 |
| 20260506231040 | 30 | 76 | 8.0 | 19.3 | 0.00 | 0.00 | 0.00 | 24 | 1012.5 |
| 20260506230537 | 30 | 101 | 11.3 | 17.7 | 0.00 | 0.00 | 0.00 | 24 | 1012.6 |
| 20260506230059 | 30 | 98 | 9.7 | 17.7 | 0.00 | 0.00 | 0.00 | 24 | 1012.7 |
| 20260506225541 | 30 | 81 | 9.7 | 17.7 | 0.00 | 0.00 | 0.00 | 25 | 1012.7 |
| 20260506225041 | 30 | 155 | 8.0 | 17.7 | 0.00 | 0.00 | 0.00 | 24 | 1012.7 |
| 20260506224546 | 31 | 66 | 8.0 | 14.5 | 0.00 | 0.00 | 0.00 | 24 | 1012.8 |
| 20260506224041 | 30 | 96 | 8.0 | 14.5 | 0.00 | 0.00 | 0.00 | 28 | 1012.9 |
| 20260506223541 | 30 | 95 | 9.7 | 19.3 | 0.00 | 0.00 | 0.00 | 25 | 1012.9 |
| 20260506223052 | 30 | 94 | 11.3 | 19.3 | 0.00 | 0.00 | 0.00 | 25 | 1013.0 |
| 20260506222541 | 30 | 71 | 8.0 | 20.9 | 0.00 | 0.00 | 0.00 | 25 | 1013.1 |
| 20260506222042 | 30 | 103 | 6.4 | 20.9 | 0.00 | 0.00 | 0.00 | 25 | 1013.2 |
| 20260506221552 | 30 | 80 | 6.4 | 16.1 | 0.00 | 0.00 | 0.00 | 24 | 1013.3 |
| 20260506221040 | 30 | 107 | 6.4 | 16.1 | 0.00 | 0.00 | 0.00 | 26 | 1013.3 |
| 20260506220542 | 30 | 71 | 6.4 | 16.1 | 0.00 | 0.00 | 0.00 | 25 | 1013.4 |
| 20260506220052 | 30 | 97 | 9.7 | 16.1 | 0.00 | 0.00 | 0.00 | 24 | 1013.6 |
| 20260506215541 | 30 | 103 | 6.4 | 14.5 | 0.00 | 0.00 | 0.00 | 25 | 1013.6 |
| 20260506215038 | 30 | 44 | 8.0 | 16.1 | 0.00 | 0.00 | 0.00 | 25 | 1013.6 |
| 20260506214550 | 30 | 74 | 6.4 | 16.1 | 0.00 | 0.00 | 0.00 | 26 | 1013.6 |
| 20260506214040 | 30 | 107 | 6.4 | 16.1 | 0.00 | 0.00 | 0.00 | 26 | 1013.8 |
| 20260506213537 | 30 | 75 | 6.4 | 14.5 | 0.00 | 0.00 | 0.00 | 25 | 1013.9 |
| 20260506213048 | 30 | 117 | 8.0 | 12.9 | 0.00 | 0.00 | 0.00 | 26 | 1013.9 |
| 20260506212540 | 30 | 106 | 4.8 | 12.9 | 0.00 | 0.00 | 0.00 | 26 | 1014.0 |
| 20260506212037 | 30 | 101 | 6.4 | 12.9 | 0.00 | 0.00 | 0.00 | 25 | 1014.1 |
| 20260506211554 | 29 | 85 | 6.4 | 11.3 | 0.00 | 0.00 | 0.00 | 26 | 1014.1 |
| 20260506211041 | 30 | 96 | 3.2 | 11.3 | 0.00 | 0.00 | 0.00 | 29 | 1014.2 |
| 20260506210541 | 29 | 43 | 3.2 | 14.5 | 0.00 | 0.00 | 0.00 | 26 | 1014.3 |
| 20260506210052 | 30 | 113 | 8.0 | 14.5 | 0.00 | 0.00 | 0.00 | 28 | 1014.4 |
| 20260506205540 | 28 | 13 | 4.8 | 14.5 | 0.00 | 0.00 | 0.00 | 26 | 1014.4 |
| 20260506205040 | 28 | 97 | 8.0 | 14.5 | 0.00 | 0.00 | 0.00 | 28 | 1014.5 |
| 20260506204552 | 29 | 81 | 8.0 | 14.5 | 0.00 | 0.00 | 0.00 | 28 | 1014.5 |
| 20260506204040 | 28 | 154 | 4.8 | 14.5 | 0.00 | 0.00 | 0.00 | 30 | 1014.6 |
| 20260506203540 | 28 | 128 | 8.0 | 14.5 | 0.00 | 0.00 | 0.00 | 29 | 1014.5 |
| 20260506203051 | 28 | 83 | 6.4 | 14.5 | 0.00 | 0.00 | 0.00 | 29 | 1014.7 |
| 20260506202541 | 28 | 109 | 6.4 | 11.3 | 0.00 | 0.00 | 0.00 | 31 | 1014.7 |
| 20260506202040 | 28 | 92 | 4.8 | 11.3 | 0.00 | 0.00 | 0.00 | 28 | 1014.8 |
| 20260506201555 | 28 | 74 | 6.4 | 11.3 | 0.00 | 0.00 | 0.00 | 29 | 1014.9 |
| 20260506201041 | 27 | 75 | 6.4 | 11.3 | 0.00 | 0.00 | 0.00 | 28 | 1014.9 |
| 20260506200539 | 28 | 50 | 6.4 | 11.3 | 0.00 | 0.00 | 0.00 | 27 | 1015.0 |
| 20260506200049 | 28 | 37 | 4.8 | 11.3 | 0.00 | 0.00 | 0.00 | 28 | 1015.1 |
| 20260506195538 | 28 | 117 | 6.4 | 11.3 | 0.00 | 0.00 | 0.00 | 30 | 1015.1 |
| 20260506195038 | 28 | 74 | 4.8 | 9.7 | 0.00 | 0.00 | 0.00 | 29 | 1015.3 |
| 20260506194553 | 28 | 101 | 3.2 | 12.9 | 0.00 | 0.00 | 0.00 | 31 | 1015.3 |
| 20260506194039 | 27 | 76 | 4.8 | 12.9 | 0.00 | 0.00 | 0.00 | 29 | 1015.5 |
| 20260506193538 | 27 | 89 | 4.8 | 12.9 | 0.00 | 0.00 | 0.00 | 29 | 1015.6 |
| 20260506193051 | 27 | 49 | 3.2 | 9.7 | 0.00 | 0.00 | 0.00 | 28 | 1015.6 |
| 20260506192538 | 27 | 44 | 3.2 | 9.7 | 0.00 | 0.00 | 0.00 | 28 | 1015.7 |
| 20260506192040 | 27 | 117 | 4.8 | 9.7 | 0.00 | 0.00 | 0.00 | 31 | 1015.9 |
| 20260506191553 | 26 | 74 | 4.8 | 9.7 | 0.00 | 0.00 | 0.00 | 29 | 1015.9 |
| 20260506191039 | 26 | 92 | 4.8 | 9.7 | 0.00 | 0.00 | 0.00 | 33 | 1016.0 |
| 20260506190539 | 26 | 155 | 1.6 | 6.4 | 0.00 | 0.00 | 0.00 | 32 | 1016.0 |
| 20260506190054 | 26 | 78 | 3.2 | 6.4 | 0.00 | 0.00 | 0.00 | 34 | 1016.1 |
| 20260506185538 | 26 | 168 | 1.6 | 6.4 | 0.00 | 0.00 | 0.00 | 31 | 1016.2 |
| 20260506185038 | 27 | 65 | 1.6 | 6.4 | 0.00 | 0.00 | 0.00 | 30 | 1016.3 |
| 20260506184554 | 26 | 360 | 3.2 | 6.4 | 0.00 | 0.00 | 0.00 | 29 | 1016.4 |
| 20260506184038 | 27 | 25 | 1.6 | 11.3 | 0.00 | 0.00 | 0.00 | 29 | 1016.5 |
| 20260506183538 | 25 | 60 | 3.2 | 11.3 | 0.00 | 0.00 | 0.00 | 34 | 1016.5 |
| 20260506183051 | 25 | 77 | 4.8 | 9.7 | 0.00 | 0.00 | 0.00 | 30 | 1016.5 |
| 20260506182538 | 25 | 88 | 3.2 | 9.7 | 0.00 | 0.00 | 0.00 | 31 | 1016.6 |
| 20260506182040 | 25 | 134 | 1.6 | 9.7 | 0.00 | 0.00 | 0.00 | 33 | 1016.5 |
| 20260506181549 | 25 | 130 | 4.8 | 9.7 | 0.00 | 0.00 | 0.00 | 34 | 1016.7 |
| 20260506181039 | 25 | 55 | 4.8 | 9.7 | 0.00 | 0.00 | 0.00 | 32 | 1016.7 |
| 20260506180539 | 25 | 127 | 4.8 | 9.7 | 0.00 | 0.00 | 0.00 | 36 | 1016.7 |
| 20260506180049 | 25 | 129 | 4.8 | 9.7 | 0.00 | 0.00 | 0.00 | 35 | 1016.7 |
| 20260506175539 | 24 | 105 | 3.2 | 9.7 | 0.00 | 0.00 | 0.00 | 35 | 1016.7 |
| 20260506175038 | 24 | 100 | 3.2 | 9.7 | 0.00 | 0.00 | 0.00 | 34 | 1016.8 |
| 20260506174552 | 23 | 136 | 4.8 | 9.7 | 0.00 | 0.00 | 0.00 | 37 | 1016.7 |
| 20260506174038 | 24 | 111 | 3.2 | 8.0 | 0.00 | 0.00 | 0.00 | 35 | 1016.7 |
| 20260506173539 | 24 | 55 | 3.2 | 11.3 | 0.00 | 0.00 | 0.00 | 36 | 1016.7 |
| 20260506173124 | 23 | 142 | 3.2 | 11.3 | 0.00 | 0.00 | 0.00 | 36 | 1016.8 |
| 20260506172538 | 24 | 138 | 1.6 | 9.7 | 0.00 | 0.00 | 0.00 | 35 | 1016.8 |
| 20260506172038 | 23 | 346 | 3.2 | 9.7 | 0.00 | 0.00 | 0.00 | 35 | 1016.7 |
| 20260506171549 | 23 | 360 | 4.8 | 11.3 | 0.00 | 0.00 | 0.00 | 36 | 1016.8 |
| 20260506171040 | 23 | 148 | 3.2 | 11.3 | 0.00 | 0.00 | 0.00 | 37 | 1016.7 |
| 20260506170540 | 22 | 135 | 3.2 | 6.4 | 0.00 | 0.00 | 0.00 | 37 | 1016.6 |
| 20260506170050 | 22 | 213 | 3.2 | 11.3 | 0.00 | 0.00 | 0.00 | 37 | 1016.7 |
| 20260506165538 | 22 | 115 | 6.4 | 11.3 | 0.00 | 0.00 | 0.00 | 36 | 1016.7 |
| 20260506165038 | 22 | 103 | 6.4 | 9.7 | 0.00 | 0.00 | 0.00 | 38 | 1016.7 |
| 20260506164556 | 22 | 65 | 4.8 | 11.3 | 0.00 | 0.00 | 0.00 | 40 | 1016.7 |
| 20260506164037 | 22 | 97 | 4.8 | 11.3 | 0.00 | 0.00 | 0.00 | 40 | 1016.7 |
| 20260506163538 | 22 | 66 | 3.2 | 6.4 | 0.00 | 0.00 | 0.00 | 40 | 1016.8 |
| 20260506163103 | 21 | 78 | 3.2 | 6.4 | 0.00 | 0.00 | 0.00 | 42 | 1016.8 |
| 20260506162538 | 21 | 81 | 1.6 | 6.4 | 0.00 | 0.00 | 0.00 | 42 | 1016.8 |
| 20260506162038 | 21 | 70 | 0.0 | 4.8 | 0.00 | 0.00 | 0.00 | 42 | 1016.8 |
| 20260506161603 | 21 | 74 | 1.6 | 4.8 | 0.00 | 0.00 | 0.00 | 42 | 1016.8 |
| 20260506161038 | 21 | 26 | 1.6 | 4.8 | 0.00 | 0.00 | 0.00 | 42 | 1016.8 |
| 20260506160538 | 21 | 0 | 1.6 | 4.8 | 0.00 | 0.00 | 0.00 | 43 | 1016.7 |
| 20260506160058 | 21 | 17 | 3.2 | 4.8 | 0.00 | 0.00 | 0.00 | 44 | 1016.8 |
| 20260506155538 | 20 | 237 | 0.0 | 4.8 | 0.00 | 0.00 | 0.00 | 44 | 1016.8 |
| 20260506155038 | 20 | 0 | 1.6 | 4.8 | 0.00 | 0.00 | 0.00 | 47 | 1016.6 |
| 20260506154556 | 20 | 234 | 1.6 | 3.2 | 0.00 | 0.00 | 0.00 | 50 | 1016.7 |
| 20260506154038 | 20 | 0 | 1.6 | 3.2 | 0.00 | 0.00 | 0.00 | 46 | 1016.8 |
| 20260506153538 | 19 | 297 | 0.0 | 3.2 | 0.00 | 0.00 | 0.00 | 49 | 1016.8 |
| 20260506153056 | 18 | 238 | 1.6 | 3.2 | 0.00 | 0.00 | 0.00 | 50 | 1016.7 |
| 20260506152539 | 18 | 254 | 1.6 | 3.2 | 0.00 | 0.00 | 0.00 | 51 | 1016.7 |
| 20260506152038 | 18 | 234 | 0.0 | 3.2 | 0.00 | 0.00 | 0.00 | 51 | 1016.7 |
| 20260506151552 | 18 | 228 | 1.6 | 3.2 | 0.00 | 0.00 | 0.00 | 53 | 1016.7 |
| 20260506151038 | 17 | 227 | 1.6 | 3.2 | 0.00 | 0.00 | 0.00 | 54 | 1016.7 |
| 20260506150544 | 17 | 360 | 1.6 | 3.2 | 0.00 | 0.00 | 0.00 | 52 | 1016.6 |
| 20260506150053 | 17 | 360 | 1.6 | 3.2 | 0.00 | 0.00 | 0.00 | 53 | 1016.7 |
| 20260506145542 | 17 | 360 | 0.0 | 3.2 | 0.00 | 0.00 | 0.00 | 54 | 1016.7 |
| 20260506145038 | 17 | 360 | 1.6 | 8.0 | 0.00 | 0.00 | 0.00 | 54 | 1016.7 |
| 20260506144554 | 17 | 267 | 1.6 | 8.0 | 0.00 | 0.00 | 0.00 | 55 | 1016.7 |
| 20260506144038 | 17 | 360 | 3.2 | 6.4 | 0.00 | 0.00 | 0.00 | 55 | 1016.7 |
| 20260506143538 | 16 | 210 | 1.6 | 6.4 | 0.00 | 0.00 | 0.00 | 56 | 1016.6 |
| 20260506143050 | 16 | 225 | 1.6 | 6.4 | 0.00 | 0.00 | 0.00 | 57 | 1016.6 |
| 20260506142538 | 16 | 215 | 3.2 | 6.4 | 0.00 | 0.00 | 0.00 | 57 | 1016.5 |
| 20260506142038 | 16 | 232 | 3.2 | 4.8 | 0.00 | 0.00 | 0.00 | 57 | 1016.5 |
| 20260506141549 | 16 | 234 | 1.6 | 3.2 | 0.00 | 0.00 | 0.00 | 58 | 1016.6 |
| 20260506141038 | 16 | 360 | 1.6 | 3.2 | 0.00 | 0.00 | 0.00 | 57 | 1016.5 |
| 20260506140540 | 16 | 360 | 1.6 | 3.2 | 0.00 | 0.00 | 0.00 | 58 | 1016.4 |
| 20260506140048 | 15 | 217 | 1.6 | 4.8 | 0.00 | 0.00 | 0.00 | 59 | 1016.3 |
| 20260506135539 | 15 | 0 | 1.6 | 4.8 | 0.00 | 0.00 | 0.00 | 58 | 1016.3 |
| 20260506135037 | 15 | 217 | 1.6 | 6.4 | 0.00 | 0.00 | 0.00 | 58 | 1016.2 |
| 20260506134545 | 15 | 286 | 3.2 | 6.4 | 0.00 | 0.00 | 0.00 | 58 | 1016.3 |
| 20260506134040 | 15 | 238 | 3.2 | 6.4 | 0.00 | 0.00 | 0.00 | 59 | 1016.1 |
| 20260506133538 | 15 | 360 | 1.6 | 3.2 | 0.00 | 0.00 | 0.00 | 59 | 1016.2 |
| 20260506133052 | 15 | 360 | 1.6 | 3.2 | 0.00 | 0.00 | 0.00 | 60 | 1016.1 |
| 20260506132539 | 15 | 240 | 1.6 | 4.8 | 0.00 | 0.00 | 0.00 | 61 | 1016.1 |
| 20260506132038 | 15 | 238 | 0.0 | 4.8 | 0.00 | 0.00 | 0.00 | 60 | 1016.0 |
| 20260506131552 | 15 | 246 | 3.2 | 4.8 | 0.00 | 0.00 | 0.00 | 61 | 1015.9 |
| 20260506131038 | 15 | 236 | 1.6 | 4.8 | 0.00 | 0.00 | 0.00 | 61 | 1015.8 |
| 20260506130541 | 15 | 245 | 3.2 | 4.8 | 0.00 | 0.00 | 0.00 | 61 | 1015.7 |
| 20260506130112 | 15 | 242 | 3.2 | 6.4 | 0.00 | 0.00 | 0.00 | 60 | 1015.6 |
| 20260506125538 | 15 | 250 | 3.2 | 6.4 | 0.00 | 0.00 | 0.00 | 59 | 1015.7 |
| 20260506125038 | 15 | 228 | 3.2 | 8.0 | 0.00 | 0.00 | 0.00 | 60 | 1015.6 |
| 20260506124558 | 15 | 222 | 3.2 | 8.0 | 0.00 | 0.00 | 0.00 | 59 | 1015.5 |
| 20260506124038 | 15 | 264 | 3.2 | 8.0 | 0.00 | 0.00 | 0.00 | 59 | 1015.4 |
| 20260506123538 | 15 | 242 | 3.2 | 4.8 | 0.00 | 0.00 | 0.00 | 59 | 1015.4 |
| 20260506123053 | 15 | 242 | 3.2 | 4.8 | 0.00 | 0.00 | 0.00 | 59 | 1015.3 |
| 20260506122540 | 15 | 257 | 3.2 | 8.0 | 0.00 | 0.00 | 0.00 | 59 | 1015.3 |
| 20260506122037 | 15 | 265 | 1.6 | 8.0 | 0.00 | 0.00 | 0.00 | 60 | 1015.3 |
| 20260506121547 | 15 | 260 | 3.2 | 6.4 | 0.00 | 0.00 | 0.00 | 59 | 1015.1 |
| 20260506121038 | 15 | 229 | 3.2 | 3.2 | 0.00 | 0.00 | 0.00 | 60 | 1015.1 |
| 20260506120540 | 15 | 250 | 1.6 | 4.8 | 0.00 | 0.00 | 0.00 | 60 | 1015.1 |
| 20260506120048 | 15 | 269 | 3.2 | 4.8 | 0.00 | 0.00 | 0.00 | 60 | 1015.0 |
| 20260506115538 | 15 | 250 | 3.2 | 3.2 | 0.00 | 0.00 | 0.00 | 60 | 1015.0 |
| 20260506115037 | 15 | 239 | 1.6 | 3.2 | 0.00 | 0.00 | 0.00 | 61 | 1015.1 |
| 20260506114551 | 15 | 270 | 1.6 | 4.8 | 0.00 | 0.00 | 0.00 | 61 | 1015.1 |
| 20260506114037 | 15 | 281 | 1.6 | 6.4 | 0.00 | 0.00 | 0.00 | 60 | 1015.1 |
| 20260506113537 | 15 | 264 | 3.2 | 6.4 | 0.00 | 0.00 | 0.00 | 60 | 1015.1 |
| 20260506113055 | 15 | 280 | 3.2 | 8.0 | 0.00 | 0.00 | 0.00 | 59 | 1015.1 |
| 20260506112539 | 15 | 296 | 4.8 | 12.9 | 0.00 | 0.00 | 0.00 | 57 | 1015.0 |
| 20260506112042 | 16 | 247 | 4.8 | 12.9 | 0.00 | 0.00 | 0.00 | 57 | 1015.1 |
| 20260506111549 | 16 | 216 | 4.8 | 9.7 | 0.00 | 0.00 | 0.00 | 57 | 1015.1 |
| 20260506111038 | 16 | 238 | 4.8 | 11.3 | 0.00 | 0.00 | 0.00 | 57 | 1015.1 |
| 20260506110538 | 16 | 239 | 4.8 | 11.3 | 0.00 | 0.00 | 0.00 | 56 | 1015.1 |
| 20260506110100 | 16 | 229 | 8.0 | 14.5 | 0.00 | 0.00 | 0.00 | 56 | 1015.1 |
| 20260506105538 | 16 | 225 | 9.7 | 14.5 | 0.00 | 0.00 | 0.00 | 57 | 1015.1 |
| 20260506105038 | 15 | 194 | 6.4 | 9.7 | 0.00 | 0.00 | 0.00 | 58 | 1015.0 |
| 20260506104552 | 15 | 241 | 4.8 | 9.7 | 0.00 | 0.00 | 0.00 | 58 | 1015.1 |
| 20260506104037 | 16 | 254 | 4.8 | 9.7 | 0.00 | 0.00 | 0.00 | 58 | 1015.1 |
| 20260506103538 | 16 | 251 | 3.2 | 8.0 | 0.00 | 0.00 | 0.00 | 57 | 1015.1 |
| 20260506103050 | 16 | 319 | 3.2 | 8.0 | 0.00 | 0.00 | 0.00 | 57 | 1015.0 |
| 20260506102538 | 16 | 244 | 1.6 | 4.8 | 0.00 | 0.00 | 0.00 | 56 | 1015.0 |
| 20260506102038 | 16 | 268 | 1.6 | 6.4 | 0.00 | 0.00 | 0.00 | 56 | 1014.9 |
| 20260506101600 | 16 | 209 | 3.2 | 6.4 | 0.00 | 0.00 | 0.00 | 56 | 1014.8 |
| 20260506101037 | 16 | 245 | 3.2 | 6.4 | 0.00 | 0.00 | 0.00 | 55 | 1014.9 |
| 20260506100537 | 16 | 226 | 1.6 | 4.8 | 0.00 | 0.00 | 0.00 | 56 | 1014.7 |
| 20260506100109 | 16 | 227 | 1.6 | 4.8 | 0.00 | 0.00 | 0.00 | 56 | 1014.8 |
| 20260506095537 | 16 | 186 | 0.0 | 3.2 | 0.00 | 0.00 | 0.00 | 56 | 1014.7 |
| 20260506095038 | 16 | 186 | 1.6 | 3.2 | 0.00 | 0.00 | 0.00 | 56 | 1014.8 |
| 20260506094552 | 16 | 192 | 0.0 | 3.2 | 0.00 | 0.00 | 0.00 | 55 | 1014.7 |
| 20260506094038 | 16 | 185 | 0.0 | 4.8 | 0.00 | 0.00 | 0.00 | 54 | 1014.8 |
| 20260506093538 | 16 | 216 | 0.0 | 6.4 | 0.00 | 0.00 | 0.00 | 56 | 1014.9 |
| 20260506093051 | 16 | 271 | 3.2 | 6.4 | 0.00 | 0.00 | 0.00 | 53 | 1014.9 |
| 20260506092538 | 16 | 132 | 0.0 | 3.2 | 0.00 | 0.00 | 0.00 | 54 | 1014.8 |
| 20260506092038 | 16 | 83 | 0.0 | 3.2 | 0.00 | 0.00 | 0.00 | 53 | 1014.8 |
| 20260506091548 | 16 | 0 | 1.6 | 3.2 | 0.00 | 0.00 | 0.00 | 53 | 1014.9 |
| 20260506091041 | 16 | 154 | 0.0 | 3.2 | 0.00 | 0.00 | 0.00 | 54 | 1014.9 |
| 20260506090537 | 17 | 0 | 0.0 | 3.2 | 0.00 | 0.00 | 0.00 | 52 | 1015.0 |
| 20260506090051 | 17 | 0 | 0.0 | 3.2 | 0.00 | 0.00 | 0.00 | 52 | 1014.9 |
| 20260506085537 | 17 | 205 | 0.0 | 4.8 | 0.00 | 0.00 | 0.00 | 51 | 1015.0 |
| 20260506085037 | 17 | 228 | 0.0 | 4.8 | 0.00 | 0.00 | 0.00 | 52 | 1015.1 |
| 20260506084619 | 17 | 0 | 0.0 | 3.2 | 0.00 | 0.00 | 0.00 | 52 | 1014.9 |